Wind_Speed
7 6 5 5 5 4 4 4 3 3 2 2 2 1 0 1 2 3 3 4 5 5 5 4 5 5 5 5 5 6 6 7 7 8 8 8 8 8 9 9 9 9 10
6 6 5 5 4 3 4 4 3 3 2 1 1 1 1 2 3 4 5 4 4 5 5 5 5 5 5 6 6 6 7 8 8 8 8 9 9 9 10 10 10 11 11
6 6 5 5 4 4 4 3 3 3 2 2 2 3 3 4 4 4 4 5 5 4 5 5 6 6 7 7 7 8 8 7 8 8 9 9 10 10 11 11 11 12 12
5 5 4 4 4 4 3 3 2 2 2 3 3 4 5 5 5 5 5 6 6 6 5 6 7 7 8 8 9 10 9 9 9 9 10 10 11 11 12 12 12 13 13
4 4 4 4 4 3 3 3 3 2 3 3 4 4 5 6 6 6 6 7 7 6 6 7 8 9 9 9 10 10 10 11 11 11 11 11 12 12 12 13 13 14 14
4 4 3 3 3 3 3 3 3 3 3 4 4 5 5 6 6 6 6 6 7 7 7 8 8 9 9 9 10 11 11 11 12 11 12 12 13 13 14 14 14 15 15
5 4 3 3 3 3 3 4 4 4 4 5 5 5 5 6 6 6 6 5 5 7 8 9 9 9 10 10 11 11 12 12 13 13 14 14 15 15 15 15 16 16 16
6 5 5 4 4 4 4 4 4 4 5 6 6 5 6 5 6 6 6 6 6 7 8 9 9 9 10 11 12 12 12 13 14 15 15 15 15 15 16 17 16 17 17
6 6 6 5 5 5 5 5 5 5 6 6 6 7 7 7 7 7 7 7 8 8 9 9 10 11 11 11 11 12 13 15 15 16 16 16 16 16 17 16 16 17 18
7 7 7 6 6 5 6 5 5 5 6 7 7 7 7 7 7 8 8 8 9 9 9 11 12 12 12 12 12 13 13 14 15 16 16 16 16 17 16 16 16 17 18
7 7 7 7 7 7 7 7 6 7 7 8 7 8 8 8 9 9 9 10 10 11 12 12 12 12 12 13 14 14 15 15 16 15 16 17 17 18 17 17 18 18 18
8 8 8 8 7 8 8 8 9 8 8 8 8 9 9 8 9 10 10 11 12 13 13 13 13 13 14 15 15 16 17 17 17 16 17 17 17 17 18 19 19 19 19
9 8 8 8 8 8 9 9 9 9 9 9 9 9 9 10 10 10 10 11 12 12 13 13 14 14 15 16 16 17 18 19 18 18 18 18 19 20 20 20 20 20 20
9 9 9 9 9 9 10 10 10 10 10 10 10 10 10 11 11 11 11 11 12 12 12 13 13 13 14 15 16 17 17 18 19 19 19 20 20 20 21 21 22 23 23
9 9 10 10 10 11 11 11 11 11 11 11 11 11 11 11 11 12 12 12 12 13 13 14 14 14 15 15 15 16 17 17 18 19 19 20 21 21 21 22 23 24 25
9 9 10 10 11 12 12 12 12 12 11 11 11 12 12 12 12 12 12 13 13 13 14 15 15 15 15 15 16 17 17 18 18 18 20 20 21 21 22 23 23 24 24
10 10 11 11 12 12 12 13 13 12 12 12 12 12 13 13 12 13 13 13 13 14 15 15 16 16 17 17 17 17 18 18 18 19 19 20 20 21 22 22 22 23 24
11 11 12 12 12 12 13 13 13 13 13 13 13 13 14 13 13 13 13 13 14 15 15 16 17 17 18 17 17 17 18 18 19 19 19 20 20 21 22 22 23 23 24
12 12 13 13 13 13 13 13 13 13 13 13 13 14 14 13 13 14 14 14 14 15 15 16 17 18 19 18 18 17 18 19 19 20 20 21 22 22 22 23 23 24 25
13 13 13 13 14 14 14 13 14 13 13 14 14 14 14 14 14 15 15 14 15 15 16 17 18 19 19 19 19 19 19 20 20 21 21 22 22 22 23 24 25 26 27
13 13 14 14 14 14 14 14 14 14 15 15 15 15 15 16 16 16 16 15 16 16 17 18 19 19 20 19 19 19 20 20 20 21 21 21 22 22 23 24 25 26 27
13 14 14 15 15 15 15 15 15 15 16 16 16 16 17 17 17 16 16 17 17 18 18 19 19 20 20 20 20 20 21 20 21 21 22 22 23 24 25 26 27 28 29
14 15 15 15 16 16 16 16 16 16 16 17 17 17 17 17 17 18 18 18 18 19 20 20 20 21 21 21 21 21 22 22 22 23 23 24 25 26 26 27 28 29 30
16 15 16 17 17 17 17 17 17 17 17 18 19 19 18 18 18 19 19 19 20 20 20 20 21 21 22 21 22 22 23 23 24 24 25 26 27 27 27 28 29 30 31
17 18 18 18 18 18 18 17 17 17 18 18 18 19 19 19 19 20 20 20 20 21 21 21 21 22 23 23 24 24 24 24 25 26 26 27 28 28 28 29 30 31 32
18 19 19 19 18 19 18 18 17 17 17 18 19 20 20 20 20 21 21 21 21 21 21 21 22 23 23 24 24 25 25 26 26 27 28 28 28 29 29 30 31 31 32
Wind_Direction
81 81 91 90 87 81 84 80 85 89 85 90 92 81 156 219 237 238 240 246 238 234 233 228 223 223 223 225 230 233 237 239 242 243 246 247 251 253 254 253 255 258 261
69 70 69 72 69 62 63 69 77 74 70 52 24 10 300 276 259 245 239 244 251 246 240 238 238 237 238 240 239 241 243 244 243 246 252 253 255 258 258 258 257 259 261
70 68 66 60 55 54 45 47 52 50 54 25 347 326 317 300 283 261 251 254 255 251 252 252 247 245 245 247 249 247 248 248 249 251 257 257 257 260 261 263 263 262 264
65 63 58 51 46 41 29 19 17 14 2 353 339 324 317 311 300 284 276 268 258 254 260 261 254 251 254 254 253 252 253 255 255 259 262 261 261 263 262 262 265 266 266
55 51 44 38 37 33 21 360 351 352 346 336 329 325 325 321 312 290 280 270 258 258 263 269 264 259 260 260 256 255 256 257 260 264 265 265 264 265 265 266 267 268 269
35 32 26 13 10 6 357 344 339 337 322 317 317 321 326 323 322 309 290 275 264 264 269 271 269 266 266 264 259 257 260 262 265 266 269 269 268 266 267 267 268 271 271
25 22 19 3 352 349 343 332 334 334 326 326 321 310 313 312 314 312 297 287 278 272 270 272 275 273 270 269 264 264 262 262 263 266 268 269 267 267 268 268 269 269 269
21 20 21 11 357 344 338 328 319 323 327 327 327 322 315 311 308 307 298 290 290 286 281 277 278 279 277 275 273 271 267 267 268 269 270 270 271 268 267 266 268 267 268
26 29 27 14 356 352 341 327 317 314 320 326 326 324 321 311 307 305 306 296 291 288 286 284 280 279 279 276 274 275 273 271 270 270 270 269 270 269 269 266 268 269 270
15 15 11 9 2 352 346 335 324 317 315 320 322 324 325 320 311 307 306 306 297 291 288 285 283 282 281 278 278 277 274 271 269 268 269 268 269 270 269 269 269 270 272
14 7 4 1 358 350 343 342 328 314 311 309 310 312 311 311 311 309 306 303 301 295 292 290 287 285 284 280 279 278 277 275 273 273 273 272 272 271 272 271 271 272 273
12 8 3 355 348 343 344 341 339 328 318 314 310 310 309 309 310 307 307 304 302 298 291 288 288 287 284 281 279 278 278 278 276 276 276 276 274 275 275 274 274 273 272
8 5 358 350 346 344 344 341 337 334 326 321 319 313 309 307 310 308 307 307 304 304 300 295 293 291 289 283 280 280 280 280 278 277 277 278 277 275 274 275 275 274 273
4 0 355 348 342 343 344 341 336 331 328 326 322 318 314 309 309 312 312 309 309 310 309 304 300 300 297 291 286 282 283 282 280 279 277 277 278 277 276 277 276 275 274
1 358 356 353 348 345 342 338 335 332 326 325 322 318 315 311 309 309 308 308 308 309 307 303 303 302 301 296 290 288 287 285 281 280 279 278 278 279 279 278 277 275 274
352 350 351 348 345 343 339 337 334 330 325 321 318 317 316 308 308 308 305 305 306 307 307 305 304 303 301 300 296 293 293 290 285 284 282 280 279 281 281 280 278 277 276
344 342 343 344 341 340 341 339 337 332 327 323 316 313 316 314 311 312 311 309 308 307 306 309 307 307 304 302 301 299 296 294 291 288 287 284 281 281 283 282 280 280 279
340 338 339 340 339 338 337 336 337 336 332 327 322 316 314 313 311 312 313 312 312 313 312 312 312 310 307 303 301 299 297 296 296 292 289 287 285 285 284 283 283 283 282
340 339 339 339 340 339 336 334 335 333 332 331 326 323 319 317 315 314 312 311 312 310 311 311 310 310 308 305 304 300 297 297 295 291 290 290 288 287 287 287 287 286 285
338 339 339 339 339 337 334 331 331 330 330 329 327 325 321 318 317 315 314 311 310 311 312 312 311 310 309 308 308 306 301 299 298 297 294 292 291 289 289 289 288 288 287
334 335 336 337 336 334 333 332 330 326 324 325 325 326 325 321 319 316 315 314 313 313 311 310 310 310 309 307 308 308 307 304 302 302 300 297 295 293 292 292 292 291 290
330 330 330 332 333 330 328 327 325 324 322 324 325 324 323 320 319 317 316 315 315 314 313 312 311 312 310 308 307 308 309 305 302 301 300 299 298 296 294 294 294 293 292
322 323 326 328 329 328 325 323 322 321 322 322 323 322 321 319 317 315 314 313 314 314 313 314 312 311 310 309 309 309 308 305 303 302 301 300 299 297 295 294 293 293 292
318 321 322 322 323 324 323 323 321 320 320 319 319 320 318 317 315 314 314 314 314 314 313 312 312 311 310 309 310 309 308 306 304 303 301 300 300 298 296 295 294 294 293
314 313 313 316 318 319 319 320 319 318 319 320 320 321 320 318 316 314 313 313 313 313 313 312 311 310 309 309 309 309 307 306 305 304 301 300 299 299 297 296 295 294 294
310 310 310 311 313 316 315 316 316 316 317 318 320 321 320 318 316 316 315 314 313 313 314 314 312 312 311 310 309 308 307 306 304 304 302 300 300 299 298 297 296 295 295
Height
5895 5895 5895 5894 5894 5893 5892 5892 5892 5892 5891 5891 5890 5890 5890 5889 5889 5889 5888 5888 5887 5887 5887 5886 5886 5885 5885 5886 5886 5886 5886 5886 5886 5886 5886 5886 5886 5886 5886 5886 5886 5886 5886
5896 5896 5895 5895 5895 5894 5893 5893 5892 5892 5891 5891 5890 5890 5890 5889 5888 5887 5887 5887 5886 5886 5886 5886 5885 5885 5885 5885 5885 5884 5884 5884 5884 5884 5884 5884 5884 5884 5884 5884 5884 5884 5884
5897 5897 5896 5895 5895 5894 5894 5893 5893 5892 5891 5891 5891 5890 5889 5889 5887 5887 5886 5886 5885 5885 5885 5884 5884 5884 5884 5883 5883 5883 5883 5882 5882 5882 5882 5882 5882 5882 5882 5882 5881 5881 5881
5898 5897 5897 5896 5895 5895 5894 5893 5893 5892 5892 5891 5891 5890 5889 5888 5887 5886 5885 5885 5884 5884 5883 5883 5882 5882 5882 5881 5881 5881 5881 5881 5881 5881 5880 5880 5880 5879 5879 5879 5879 5878 5878
5898 5897 5897 5896 5895 5895 5894 5894 5893 5892 5891 5891 5890 5889 5888 5887 5886 5884 5884 5883 5883 5883 5882 5881 5881 5880 5880 5879 5879 5879 5879 5879 5879 5879 5878 5878 5877 5877 5876 5876 5876 5875 5875
5899 5898 5897 5896 5895 5895 5894 5893 5892 5891 5891 5890 5889 5889 5888 5886 5885 5884 5883 5882 5881 5881 5880 5880 5879 5879 5878 5877 5877 5877 5876 5876 5876 5876 5876 5875 5875 5874 5873 5873 5872 5872 5871
5898 5897 5897 5896 5895 5894 5894 5893 5892 5891 5890 5890 5889 5888 5887 5885 5884 5883 5882 5881 5880 5879 5879 5878 5877 5877 5876 5875 5874 5874 5874 5873 5873 5873 5872 5872 5871 5871 5870 5869 5868 5868 5867
5898 5897 5896 5895 5895 5894 5893 5892 5891 5890 5889 5889 5888 5886 5885 5885 5883 5882 5881 5880 5879 5878 5877 5876 5875 5874 5874 5873 5872 5871 5871 5871 5870 5869 5869 5868 5867 5867 5866 5865 5864 5864 5863
5898 5897 5896 5895 5894 5893 5892 5891 5890 5889 5888 5888 5886 5885 5884 5883 5882 5881 5879 5878 5877 5876 5875 5874 5873 5872 5871 5870 5869 5869 5868 5867 5867 5866 5865 5864 5863 5862 5861 5861 5860 5860 5859
5898 5897 5896 5895 5894 5893 5892 5890 5889 5888 5887 5886 5885 5884 5883 5881 5880 5879 5878 5876 5875 5873 5872 5871 5870 5869 5868 5867 5866 5865 5864 5863 5863 5862 5861 5860 5859 5858 5857 5857 5856 5856 5855
5899 5897 5896 5895 5894 5893 5891 5890 5888 5887 5886 5885 5884 5882 5881 5880 5878 5877 5875 5874 5872 5871 5869 5868 5867 5866 5864 5864 5863 5862 5861 5859 5859 5858 5856 5855 5855 5854 5853 5853 5852 5851 5850
5899 5897 5896 5895 5893 5892 5891 5889 5887 5885 5884 5883 5882 5880 5879 5878 5876 5875 5873 5871 5870 5868 5866 5865 5864 5862 5861 5860 5859 5857 5856 5855 5854 5853 5852 5851 5850 5849 5849 5848 5847 5846 5845
5898 5897 5896 5894 5893 5891 5889 5888 5886 5884 5882 5881 5880 5878 5877 5876 5874 5872 5871 5869 5867 5865 5863 5861 5860 5859 5857 5856 5854 5853 5852 5850 5849 5848 5848 5847 5846 5844 5844 5843 5842 5841 5840
5898 5896 5895 5893 5891 5890 5888 5886 5884 5882 5881 5879 5877 5876 5874 5873 5871 5870 5868 5867 5864 5862 5860 5858 5856 5855 5853 5852 5850 5849 5847 5845 5844 5843 5842 5841 5840 5839 5838 5837 5836 5835 5834
5897 5895 5893 5892 5890 5888 5886 5884 5882 5880 5878 5877 5875 5873 5872 5870 5868 5867 5865 5864 5862 5860 5858 5855 5853 5851 5850 5848 5846 5844 5843 5841 5840 5838 5837 5836 5835 5834 5832 5831 5829 5828 5827
5896 5894 5892 5890 5888 5886 5884 5881 5879 5877 5876 5874 5872 5871 5869 5868 5866 5864 5862 5860 5859 5857 5855 5852 5850 5848 5846 5844 5842 5840 5839 5837 5835 5833 5832 5831 5829 5828 5826 5824 5823 5822 5820
5895 5893 5891 5888 5886 5884 5881 5879 5877 5874 5873 5871 5869 5868 5866 5865 5863 5861 5859 5857 5855 5853 5851 5849 5846 5844 5842 5840 5838 5836 5834 5832 5830 5828 5826 5825 5823 5821 5820 5818 5817 5815 5814
5893 5891 5888 5886 5884 5881 5879 5877 5874 5872 5870 5868 5866 5865 5863 5862 5860 5858 5856 5854 5852 5850 5848 5846 5843 5841 5838 5836 5833 5831 5829 5827 5825 5822 5821 5819 5817 5815 5814 5812 5810 5808 5807
5891 5888 5886 5884 5881 5879 5877 5874 5872 5870 5868 5866 5864 5862 5860 5858 5857 5855 5853 5851 5849 5847 5845 5843 5840 5837 5834 5831 5829 5826 5824 5822 5820 5817 5815 5813 5811 5809 5807 5806 5803 5802 5800
5889 5886 5884 5881 5879 5876 5874 5872 5870 5868 5866 5864 5861 5859 5857 5855 5854 5852 5849 5847 5845 5843 5841 5839 5836 5833 5830 5827 5824 5822 5819 5817 5814 5811 5809 5807 5805 5803 5801 5799 5797 5794 5792
5886 5884 5881 5879 5876 5874 5872 5869 5867 5865 5863 5861 5859 5857 5855 5852 5850 5848 5846 5844 5842 5839 5837 5834 5832 5829 5826 5823 5820 5817 5814 5812 5809 5806 5803 5801 5799 5796 5794 5791 5789 5786 5784
5884 5881 5879 5876 5874 5871 5869 5867 5865 5863 5861 5858 5856 5854 5852 5849 5847 5845 5842 5840 5838 5836 5833 5830 5827 5824 5821 5818 5815 5812 5809 5806 5804 5801 5798 5795 5792 5790 5787 5784 5782 5779 5776
5881 5878 5876 5873 5871 5868 5866 5864 5862 5860 5857 5855 5853 5850 5848 5846 5843 5841 5838 5836 5833 5831 5828 5825 5822 5819 5816 5813 5810 5807 5804 5801 5798 5795 5792 5789 5786 5783 5780 5777 5774 5771 5768
5877 5875 5872 5870 5867 5865 5862 5860 5858 5856 5854 5852 5849 5847 5844 5842 5839 5837 5834 5832 5829 5826 5823 5820 5817 5814 5811 5808 5805 5802 5798 5795 5791 5789 5785 5782 5779 5776 5772 5769 5766 5762 5759
5874 5871 5868 5866 5863 5861 5858 5856 5854 5852 5850 5848 5846 5843 5840 5838 5835 5832 5830 5827 5824 5821 5818 5815 5812 5809 5805 5802 5799 5795 5792 5788 5785 5782 5779 5775 5772 5768 5765 5761 5757 5754 5750
5869 5866 5864 5862 5859 5856 5853 5851 5850 5848 5846 5845 5842 5839 5837 5834 5831 5828 5825 5823 5820 5816 5813 5810 5806 5803 5800 5796 5793 5789 5785 5782 5778 5775 5771 5768 5764 5760 5757 5753 5749 5745 5742